Weather History for Warroad, MN

Change the Weather History Date:

Monday, December 31, 2012

  Actual Average Record
Temperature  
Mean Temperature -9 °F -  
Max Temperature -2 °F 10 °F 35 °F (1949)
Min Temperature -16 °F -7 °F -40 °F (1967)
Degree Days  
Heating Degree Days 74    
Moisture  
Dew Point -13 °F    
Average Humidity 77    
Maximum Humidity 84    
Minimum Humidity 70    
Precipitation  
Precipitation 0.00 in - - ()
Sea Level Pressure  
Sea Level Pressure 30.17 in    
Wind  
Wind Speed 6 mph (WSW)    
Max Wind Speed 12 mph    
Max Gust Speed -    
Visibility 9 miles    
Events Snow    
Averages and records for this station are not official NWS values.
T = Trace of Precipitation, MM = Missing Value Source: NWS Daily Summary

Daily Weather History Graph

Daily Weather History Graph

Search for Another Location

Airport:

Trip Planner

Search our weather history database for the weather conditions in past years. The results will help you decide how hot, cold, wet, or windy it might be!

Date:

Astronomy

Dec. 31, 2012 Rise Set
Actual Time 8:15 AM CST 4:34 PM CST
Civil Twilight 7:38 AM CST 5:11 PM CST
Nautical Twilight 6:57 AM CST 5:51 PM CST
Astronomical Twilight 6:19 AM CST 6:30 PM CST
Moon 8:25 PM CST (12/31) 9:39 AM CST (12/31)
Length of Visible Light 9h 33m
Length of Day
8h 19m
Waning Gibbous, 90% of the Moon is Illuminated
Dec 31
Waning Gibbous
Jan 4
Last Quarter
Jan 11
New
Jan 18
First Quarter
Jan 26
Full

Hourly Weather History & Observations

Time (CST) Temp. Windchill Dew Point Humidity Pressure Visibility Wind Dir Wind Speed Gust Speed Precip Events Conditions
12:14 AM -2.2 °F -19.9 °F -7.6 °F 78% 30.04 in 10.0 mi WNW 11.5 mph - N/A   Clear
12:34 AM -2.2 °F -18.0 °F -7.6 °F 78% 30.04 in 10.0 mi WNW 9.2 mph - N/A   Clear
12:54 AM -2.2 °F -16.8 °F -7.6 °F 78% 30.05 in 10.0 mi WNW 8.1 mph - N/A   Clear
1:14 AM -2.2 °F -16.8 °F -9.4 °F 71% 30.05 in 10.0 mi WNW 8.1 mph - N/A   Clear
1:34 AM -4.0 °F -19.0 °F -9.4 °F 78% 30.06 in 10.0 mi WNW 8.1 mph - N/A   Clear
1:54 AM -4.0 °F -19.0 °F -9.4 °F 78% 30.07 in 10.0 mi WNW 8.1 mph - N/A   Clear
2:14 AM -5.8 °F -19.9 °F -9.4 °F 84% 30.08 in 10.0 mi West 6.9 mph - N/A   Clear
2:34 AM -5.8 °F -21.2 °F -9.4 °F 84% 30.09 in 10.0 mi West 8.1 mph - N/A   Clear
2:54 AM -5.8 °F -19.9 °F -11.2 °F 77% 30.10 in 10.0 mi West 6.9 mph - N/A   Clear
3:14 AM -5.8 °F -19.9 °F -11.2 °F 77% 30.11 in 10.0 mi WNW 6.9 mph - N/A   Clear
3:34 AM -5.8 °F -19.9 °F -11.2 °F 77% 30.11 in 10.0 mi WNW 6.9 mph - N/A   Clear
3:54 AM -7.6 °F -23.4 °F -11.2 °F 84% 30.12 in 10.0 mi West 8.1 mph - N/A   Clear
4:14 AM -7.6 °F -20.6 °F -11.2 °F 84% 30.12 in 10.0 mi West 5.8 mph - N/A   Clear
4:34 AM -7.6 °F -20.6 °F -13.0 °F 77% 30.13 in 10.0 mi West 5.8 mph - N/A   Clear
4:54 AM -11.2 °F -23.0 °F -16.6 °F 77% 30.14 in 7.0 mi West 4.6 mph - N/A   Clear
5:14 AM -11.2 °F -20.6 °F -16.6 °F 77% 30.15 in 2.5 mi WSW 3.5 mph - N/A   Haze
5:34 AM -11.2 °F -23.0 °F -16.6 °F 77% 30.15 in 10.0 mi WSW 4.6 mph - N/A   Clear
6:14 AM -13.0 °F -27.0 °F -18.4 °F 77% 30.17 in 5.0 mi West 5.8 mph - N/A   Haze
6:34 AM -13.0 °F -25.1 °F -18.4 °F 77% 30.17 in 7.0 mi WSW 4.6 mph - N/A Snow Light Snow
6:54 AM -14.8 °F -27.2 °F -20.2 °F 77% 30.18 in 7.0 mi West 4.6 mph - N/A   Clear
7:14 AM -14.8 °F -27.2 °F -20.2 °F 77% 30.17 in 7.0 mi WSW 4.6 mph - N/A   Clear
7:34 AM -14.8 °F -27.2 °F -20.2 °F 77% 30.18 in 10.0 mi SW 4.6 mph - N/A   Clear
7:54 AM -14.8 °F -27.2 °F -20.2 °F 77% 30.18 in 7.0 mi WSW 4.6 mph - N/A   Clear
8:14 AM -16.6 °F -31.3 °F -22.0 °F 76% 30.18 in 3.0 mi West 5.8 mph - N/A   Haze
8:34 AM -14.8 °F -24.8 °F -20.2 °F 77% 30.18 in 4.0 mi WSW 3.5 mph - N/A   Haze
8:54 AM -16.6 °F -26.8 °F -23.8 °F 70% 30.19 in 10.0 mi SW 3.5 mph - N/A   Clear
9:14 AM -14.8 °F - -20.2 °F 77% 30.20 in 10.0 mi Calm Calm - N/A   Clear
9:34 AM -13.0 °F -22.7 °F -18.4 °F 77% 30.20 in 10.0 mi WSW 3.5 mph - N/A   Clear
9:54 AM -11.2 °F - -16.6 °F 77% 30.21 in 7.0 mi Calm Calm - N/A   Clear
10:14 AM -9.4 °F -20.9 °F -14.8 °F 77% 30.21 in 5.0 mi West 4.6 mph - N/A   Haze
10:34 AM -7.6 °F -16.5 °F -13.0 °F 77% 30.20 in 7.0 mi West 3.5 mph - N/A   Clear
10:54 AM -7.6 °F -18.8 °F -11.2 °F 84% 30.20 in 10.0 mi West 4.6 mph - N/A   Clear
11:13 AM -5.8 °F - -11.2 °F 77% 30.20 in 7.0 mi Calm Calm - N/A   Clear
11:34 AM -5.8 °F -14.5 °F -11.2 °F 77% 30.20 in 10.0 mi WSW 3.5 mph - N/A   Clear
11:54 AM -4.0 °F - -9.4 °F 78% 30.20 in 10.0 mi Calm Calm - N/A   Clear
12:14 PM -2.2 °F -10.4 °F -7.6 °F 78% 30.20 in 10.0 mi WSW 3.5 mph - N/A   Clear
12:34 PM -2.2 °F -12.5 °F -7.6 °F 78% 30.20 in 10.0 mi West 4.6 mph - N/A   Clear
12:54 PM -2.2 °F -12.5 °F -7.6 °F 78% 30.19 in 10.0 mi SW 4.6 mph - N/A   Clear
1:14 PM -2.2 °F -15.6 °F -7.6 °F 78% 30.19 in 10.0 mi SSW 6.9 mph - N/A   Clear
1:34 PM -2.2 °F -15.6 °F -9.4 °F 71% 30.19 in 10.0 mi SW 6.9 mph - N/A   Clear
1:54 PM -2.2 °F -16.8 °F -9.4 °F 71% 30.19 in 10.0 mi SW 8.1 mph - N/A   Clear
2:14 PM -2.2 °F -15.6 °F -9.4 °F 71% 30.19 in 10.0 mi SW 6.9 mph - N/A   Clear
2:34 PM -2.2 °F -14.2 °F -9.4 °F 71% 30.19 in 10.0 mi SSW 5.8 mph - N/A   Clear
2:54 PM -2.2 °F -12.5 °F -9.4 °F 71% 30.19 in 10.0 mi SSW 4.6 mph - N/A   Clear
3:14 PM -2.2 °F -15.6 °F -9.4 °F 71% 30.19 in 10.0 mi SW 6.9 mph - N/A   Clear
3:34 PM -2.2 °F -16.8 °F -9.4 °F 71% 30.19 in 10.0 mi SW 8.1 mph - N/A   Clear
3:54 PM -2.2 °F -15.6 °F -9.4 °F 71% 30.19 in 10.0 mi SW 6.9 mph - N/A   Clear
4:14 PM -4.0 °F -16.3 °F -9.4 °F 78% 30.20 in 10.0 mi SW 5.8 mph - N/A   Clear
4:34 PM -5.8 °F -18.4 °F -11.2 °F 77% 30.20 in 10.0 mi SW 5.8 mph - N/A   Clear
4:54 PM -5.8 °F -19.9 °F -11.2 °F 77% 30.21 in 10.0 mi SW 6.9 mph - N/A   Clear
5:14 PM -7.6 °F -18.8 °F -11.2 °F 84% 30.21 in 10.0 mi SW 4.6 mph - N/A   Clear
5:34 PM -7.6 °F -18.8 °F -11.2 °F 84% 30.20 in 10.0 mi SW 4.6 mph - N/A   Clear
5:59 PM -7.6 °F -20.6 °F -11.2 °F 84% 30.20 in 10.0 mi WSW 5.8 mph - N/A   Clear
6:34 PM -7.6 °F -20.6 °F -13.0 °F 77% 30.20 in 10.0 mi SW 5.8 mph - N/A   Clear
6:54 PM -7.6 °F -20.6 °F -13.0 °F 77% 30.20 in 10.0 mi SW 5.8 mph - N/A   Clear
7:14 PM -7.6 °F -18.8 °F -13.0 °F 77% 30.20 in 10.0 mi WSW 4.6 mph - N/A   Clear
7:33 PM -9.4 °F -22.7 °F -14.8 °F 77% 30.20 in 10.0 mi West 5.8 mph - N/A   Clear
7:54 PM -9.4 °F -18.6 °F -14.8 °F 77% 30.20 in 10.0 mi West 3.5 mph - N/A   Clear
8:33 PM -9.4 °F -22.7 °F -14.8 °F 77% 30.19 in 10.0 mi WSW 5.8 mph - N/A   Clear
8:54 PM -9.4 °F -25.6 °F -14.8 °F 77% 30.18 in 10.0 mi SW 8.1 mph - N/A   Clear
9:14 PM -9.4 °F -24.3 °F -14.8 °F 77% 30.18 in 10.0 mi SW 6.9 mph - N/A   Clear
9:33 PM -9.4 °F -20.9 °F -16.6 °F 71% 30.17 in 10.0 mi SW 4.6 mph - N/A   Clear
10:14 PM -11.2 °F -23.0 °F -18.4 °F 70% 30.18 in 10.0 mi SSW 4.6 mph - N/A   Clear
10:33 PM -11.2 °F - -16.6 °F 77% 30.17 in 10.0 mi Calm Calm - N/A   Clear
11:14 PM -16.6 °F -29.3 °F -23.8 °F 70% 30.16 in 10.0 mi SSW 4.6 mph - N/A   Clear
11:34 PM -13.0 °F -27.0 °F -18.4 °F 77% 30.16 in 10.0 mi SSW 5.8 mph - N/A   Clear
11:54 PM -13.0 °F -25.1 °F -18.4 °F 77% 30.15 in 10.0 mi SW 4.6 mph - N/A   Clear